Погода в Бадалоне

Испания     41°26′58″N   2°14′43″E
темп.,
°C
ветер,
м/с
пор.,
м/с
влажн.,
%
обл.,
%
осадки,
мм/ч
давл.,
гПа
погр.,
м
21 января, пт
пт2101:00+8ссз11570 0.0 102453
04:00+7с116523 0.0 102473
07:00+6сз116613 0.0 102454
10:00+7зсз11592 0.0 1025153
13:00+10ююз12440 0.0 1025646
16:00+10ююв32490 0.0 1024805
19:00+9ююв247751 0.1 1026423
22:00+9юз2378100 0.4 1028466
22 января, сб
сб2201:00+8зсз358011 0.6 1028275
04:00+7зсз2365100 0.1 1028412
07:00+7ссз126583 0.1 1029237
10:00+7ссв116732 0.0 1031346
13:00+9вюв11605 0.0 1030728
16:00+9вюв22567 0.0 1028789
19:00+8в34654 0.0 1029489
22:00+7ссв22664 0.0 1030129
23 января, вс
вс2301:00+6ссз22700 0.0 103072
04:00+6сз22710 0.0 102964
07:00+5сз21670 0.0 102952
10:00+6сз11580 0.0 1029140
13:00+10ю11480 0.0 1029587
16:00+10юв21530 0.0 1028764
19:00+8в11700 0.0 1028134
22:00+7ссв11720 0.0 102979
24 января, пн
пн2401:00+7с21720 0.0 102965
04:00+6ссз22722 0.0 102960
07:00+5ссз11702 0.0 102954
10:00+7ссз11621 0.0 1031138
13:00+10юз22550 0.0 1030586
16:00+11ю22540 0.0 1030712
19:00+9юв11740 0.0 103195
22:00+8ссв11770 0.0 103374
25 января, вт
вт2501:00+7сз11780 0.0 103451
04:00+6сз22700 0.0 103446
07:00+6сз22590 0.0 103443
10:00+7сз12490 0.0 1034119
13:00+11ююз11370 0.0 1034419
16:00+12ю22360 0.0 1033517
19:00+10юз11590 0.0 103364
22:00+9сз22510 0.0 103449